Location: Unspecified
(0.0000°N, 0.0000°E)
Time: 01:03:56
(UTC+01:00)

Delta 168 - Visible Passes

Search period start: 27 November 2014 00:00
Search period end: 07 December 2014 00:00
Orbit: 395 x 2107 km, 25.3° (Epoch: 26 November)

Date Brightness Start Highest point End Pass type
(mag) Time Alt. Az. Time Alt. Az. Time Alt. Az.
27 Nov 4.1 04:49:58 61° NW 04:51:20 78° NNE 05:00:58 10° ESE visible
28 Nov 4.0 04:46:04 72° WNW 04:46:55 88° SSW 04:56:11 10° ESE visible
29 Nov 4.0 04:42:09 72° SW 04:42:33 74° SSW 04:51:21 10° ESE visible
30 Nov 4.2 04:38:12 60° SSW 04:38:13 60° SSW 04:46:28 10° SE visible
01 Dec 4.5 04:34:13 47° SSW 04:34:13 47° SSW 04:41:32 10° SE visible
02 Dec 4.8 04:30:13 37° S 04:30:13 37° S 04:36:32 10° SE visible
03 Dec 5.2 04:26:11 28° S 04:26:11 28° S 04:31:29 10° SE visible
03 Dec 6.3 06:20:53 10° SW 06:25:09 16° S 06:30:21 10° SSE visible
04 Dec 5.5 04:22:08 22° S 04:22:08 22° S 04:26:21 10° SE visible
04 Dec 6.4 06:17:42 10° SSW 06:21:01 13° S 06:24:53 10° SSE visible
05 Dec 5.8 04:18:04 17° S 04:18:04 17° S 04:21:05 10° SSE visible
05 Dec 6.6 06:14:56 10° SSW 06:16:54 11° S 06:19:03 10° SSE visible
06 Dec 6.0 04:13:59 12° S 04:13:59 12° S 04:15:34 10° SSE visible
